#timestamp,LO_Frequency,Hit,StdDev 
1457046015.6,286047002.4,N
1457046035.4,286046998.4,N
1457046055.2,286046997.7,N
1457046075.1,286046998.8,N
1457046076.0,286046998.8,N
1457046095.8,286046996.9,N
1457046115.6,286046997.0,N
1457046135.5,286046997.3,N
1457046155.3,286046997.8,N
1457046175.1,286046999.5,N
1457046195.9,286047001.1,N
1457046215.7,286047000.7,N
1457046235.5,286046998.5,N
1457046255.4,286046998.9,N
1457046275.2,286047000.7,N
1457046295.0,286047000.7,N
1457046295.9,286047000.7,N
1457046315.8,286046999.7,N
1457046335.6,286047000.2,N
1457046355.4,286047001.3,N
1457046375.2,286047004.2,N
1457046395.1,286047002.0,N
1457046396.0,286047002.0,N
1457046415.8,286047002.1,N
1457046435.6,286047004.0,N
1457046455.5,286046999.7,N
1457046475.3,286047002.7,N
1457046495.1,286047005.7,N
1457046515.9,286047003.4,N
1457046535.7,286047001.5,N
1457046555.5,286047001.6,N
1457046575.4,286047007.4,Y
1457046595.2,286047005.2,P
1457046615.0,286047007.0,N
1457046615.9,286047007.0,N
1457046635.8,286047006.6,N
1457046655.6,286047003.4,N
1457046675.4,286047005.7,N
1457046695.3,286047002.2,N
1457046715.1,286047000.2,N
1457046716.0,286047000.2,N
1457046735.8,286047001.1,N
1457046755.7,286047002.5,N
1457046775.5,286047000.7,N
1457046795.3,286047002.4,N
1457046815.1,286047002.4,N
1457046835.9,286046996.6,N
1457046855.7,286046995.1,N
1457046875.5,286046995.8,N
1457046895.4,286046997.7,N
1457046915.2,286046996.0,N
1457046935.0,286046998.0,N
1457046935.9,286046998.0,N
1457046955.8,286046997.3,N
1457046975.6,286046999.4,N
1457046995.4,286046995.3,N
1457047015.3,286046996.4,N
1457047035.1,286046999.2,N
1457047036.0,286046999.2,N
1457047055.8,286046999.4,N
1457047075.7,286046999.3,N
1457047095.5,286046999.6,N
1457047115.3,286046997.7,N
1457047135.1,286046997.7,N
1457047155.9,286046998.7,N
1457047175.7,286047000.1,N
1457047195.5,286047002.6,N
1457047215.4,286046998.4,N
1457047235.2,286046998.8,N
1457047255.0,286046997.1,N
1457047255.9,286046997.1,N
1457047275.8,286046998.0,N
1457047295.6,286046990.5,Y
1457047315.4,286046995.5,P
1457047335.3,286046993.4,P
1457047355.1,286046994.1,N
1457047375.8,286046993.1,Y
1457047395.7,286046997.6,P
1457047415.5,286046998.6,N
1457047435.3,286047000.8,N
1457047455.2,286047000.1,N
1457047475.9,286046998.7,N
1457047495.7,286046999.6,N
1457047515.6,286046995.3,N
1457047535.4,286046994.0,Y
1457047555.2,286046995.6,P
1457047575.1,286046997.8,N
1457047576.0,286046997.8,N
1457047595.8,286046991.9,Y
1457047615.6,286046997.2,P
1457047635.5,286046995.7,P
1457047655.3,286046998.6,N
1457047675.1,286046999.7,N
1457047695.9,286046998.2,N
1457047715.7,286047000.1,N
1457047735.5,286047001.5,N
1457047755.4,286047002.6,N
1457047775.2,286047000.6,N
1457047795.0,286046995.0,N
1457047795.9,286046995.0,N
1457047815.8,286046992.1,Y
1457047835.6,286046998.0,P
1457047855.4,286046997.1,P
1457047875.2,286046998.8,N
1457047895.1,286047000.3,N
1457047896.0,286047000.3,N
1457047915.8,286047001.8,N
1457047935.7,286047005.5,Y
1457047955.5,286047004.1,P
1457047975.3,286047005.3,N
1457047995.1,286047001.7,N
1457048015.9,286047004.4,N
1457048035.7,286047005.7,N
1457048055.5,286047004.1,N
1457048075.4,286047002.3,N
1457048095.2,286047004.1,N
1457048115.0,286047003.6,N
1457048115.9,286047003.6,N
1457048135.8,286047003.7,N
1457048155.6,286046999.8,N
1457048175.4,286046999.1,N
1457048195.3,286046999.2,N
1457048215.1,286046998.7,N
1457048216.0,286046998.7,N
1457048235.8,286047002.3,N
1457048255.6,286046998.3,N
1457048275.5,286046999.3,N
1457048295.3,286047001.7,N
1457048315.1,286047001.4,N
1457048335.9,286047002.4,N
1457048355.7,286047001.6,N
1457048375.5,286047001.5,N
1457048395.4,286047002.5,N
1457048415.2,286046997.6,N
1457048435.0,286047001.2,N
1457048435.9,286047001.2,N
1457048455.8,286047002.8,N
1457048475.6,286047003.7,N
1457048495.4,286047003.6,N
1457048515.2,286047003.3,N
1457048535.1,286047006.5,Y
1457048536.0,286047006.5,P
1457048555.8,286047005.1,N
1457048575.7,286047005.1,N
1457048595.5,286047005.9,Y
1457048615.3,286046999.7,P
1457048635.2,286047000.7,N
1457048655.9,286046998.5,N
1457048675.7,286046999.9,N
1457048695.5,286047000.2,N
1457048715.4,286047001.4,N
1457048735.2,286046999.3,N
1457048755.0,286046997.1,N
1457048755.9,286046997.1,N
1457048775.8,286046995.3,N
1457048795.6,286047000.6,N
1457048815.4,286047001.0,N
1457048835.3,286047001.1,N
1457048855.1,286046996.7,N
1457048856.0,286046996.7,N
1457048875.8,286046998.3,N
1457048895.7,286046997.5,N
1457048915.5,286046996.2,N
1457048935.3,286046993.4,N
1457048955.2,286046994.8,N
1457048975.9,286046992.2,Y
1457048995.7,286046992.5,P
1457049015.6,286046990.6,P
1457049035.4,286046989.8,P
1457049055.2,286046991.5,N
1457049075.0,286046991.6,N
1457049076.0,286046991.6,N
1457049095.8,286046993.2,N
1457049115.6,286046991.3,Y
1457049135.5,286047001.0,P
1457049155.3,286046999.9,N
1457049175.1,286046999.7,N
1457049195.8,286047000.5,N
1457049215.7,286047000.7,N
1457049235.5,286046996.2,N
1457049255.3,286046997.9,N
1457049275.2,286046993.3,N
1457049295.9,286046994.0,N
1457049315.7,286046994.4,N
1457049335.6,286046994.4,N
1457049355.4,286046993.2,N
1457049375.2,286046990.2,Y
1457049395.1,286046993.5,P
1457049396.0,286046993.5,P
1457049415.8,286046994.3,P
1457049435.6,286046994.0,Y
1457049455.5,286047002.2,P
1457049475.3,286047002.3,N
1457049495.1,286046998.2,N
1457049515.9,286047002.1,N
1457049535.7,286047002.2,N
1457049555.5,286047001.9,N
1457049575.4,286047002.0,N
1457049595.2,286047000.1,N
